This is the latest recevied weather packets stored in our database for station/object NO3U. If no packets are shown the sender has not sent any weather packets the latest 10 day(s).
| Time | Temp. | Humidity | Pressure | Rain* | Wind** | Luminosity | Snow |
|---|---|---|---|---|---|---|---|
| 1777941975 | 18.89° C | 62% | 1006.8 hPa | 0 mm | - | 0 W/m² | - |
| 1777941672 | 18.89° C | 64% | 1006.9 hPa | 0 mm | - | 0 W/m² | - |
| 1777941370 | 18.89° C | 63% | 1006.8 hPa | 0 mm | - | 0 W/m² | - |
| 1777941067 | 18.89° C | 65% | 1006.8 hPa | 0 mm | - | 1 W/m² | - |
| 1777940762 | 18.33° C | 67% | 1006.6 hPa | 0 mm | - | 1 W/m² | - |
| 1777940461 | 18.89° C | 65% | 1006.6 hPa | 0 mm | - | 2 W/m² | - |
| 1777940158 | 19.44° C | 63% | 1006.6 hPa | 0 mm | - | 4 W/m² | - |
| 1777939855 | 18.89° C | 65% | 1006.7 hPa | 0 mm | - | 7 W/m² | - |
| 1777939552 | 19.44° C | 63% | 1006.5 hPa | 0 mm | - | 9 W/m² | - |
| 1777939250 | 20° C | 62% | 1006.6 hPa | 0 mm | - | 12 W/m² | - |
| 1777938946 | 20° C | 62% | 1006.5 hPa | 0 mm | - | 15 W/m² | - |
| 1777938643 | 20° C | 61% | 1006.6 hPa | 0 mm | - | 18 W/m² | - |
| 1777938340 | 20° C | 60% | 1006.6 hPa | 0 mm | - | 21 W/m² | - |
| 1777938037 | 20.56° C | 59% | 1006.5 hPa | 0 mm | - | 27 W/m² | - |
| 1777937733 | 20.56° C | 58% | 1006.8 hPa | 0 mm | - | 31 W/m² | - |
| 1777937430 | 20.56° C | 57% | 1006.8 hPa | 0 mm | - | 34 W/m² | - |
| 1777937127 | 21.11° C | 56% | 1006.9 hPa | 0 mm | - | 41 W/m² | - |
| 1777936824 | 21.11° C | 54% | 1006.8 hPa | 0 mm | - | 57 W/m² | - |
| 1777936521 | 21.11° C | 54% | 1006.8 hPa | 0 mm | - | 66 W/m² | - |
| 1777936216 | 21.11° C | 55% | 1006.6 hPa | 0 mm | - | 64 W/m² | - |
| 1777935913 | 21.11° C | 55% | 1007 hPa | 0 mm | - | 42 W/m² | - |
| 1777935612 | 21.11° C | 55% | 1006.9 hPa | 0 mm | - | 33 W/m² | - |
| 1777935309 | 21.11° C | 55% | 1007 hPa | 0 mm | - | 53 W/m² | - |
| 1777935006 | 21.67° C | 54% | 1007.1 hPa | 0 mm | - | 48 W/m² | - |
| 1777934703 | 21.67° C | 54% | 1007.1 hPa | 0 mm | - | 79 W/m² | - |
* Rain latest hour (hover to see other rain measurements)
** Current wind speed in m/s (hover to see current wind gust speed)